TimeHST,TemperatureF,Dew PointF,Humidity,Sea Level PressureIn,VisibilityMPH,Wind Direction,Wind SpeedMPH,Gust SpeedMPH,PrecipitationIn,Events,Conditions,WindDirDegrees,DateUTC
12:37 AM,78.8,69.8,74,29.97,10.0,WSW,5.8,-,N/A,,Mostly Cloudy,250,2013-05-31 10:37:00
12:53 AM,79.0,69.1,72,29.97,10.0,WSW,6.9,-,N/A,,Mostly Cloudy,250,2013-05-31 10:53:00
1:19 AM,78.8,68.0,69,29.96,10.0,WSW,6.9,-,N/A,,Mostly Cloudy,250,2013-05-31 11:19:00
1:53 AM,79.0,69.1,72,29.95,10.0,West,4.6,-,N/A,,Mostly Cloudy,260,2013-05-31 11:53:00
2:29 AM,78.8,69.8,74,29.94,10.0,West,4.6,-,N/A,,Mostly Cloudy,280,2013-05-31 12:29:00
2:53 AM,79.0,69.1,72,29.94,10.0,West,4.6,-,N/A,,Overcast,260,2013-05-31 12:53:00
3:34 AM,78.8,69.8,74,29.93,10.0,West,5.8,-,N/A,,Mostly Cloudy,260,2013-05-31 13:34:00
3:53 AM,78.1,68.0,71,29.94,10.0,West,5.8,-,N/A,,Partly Cloudy,270,2013-05-31 13:53:00
4:53 AM,78.1,69.1,74,29.94,10.0,Calm,Calm,-,N/A,,Mostly Cloudy,0,2013-05-31 14:53:00
5:14 AM,78.8,69.8,74,29.94,10.0,Calm,Calm,-,N/A,,Overcast,0,2013-05-31 15:14:00
5:53 AM,77.0,69.1,76,29.96,10.0,East,3.5,-,N/A,,Overcast,80,2013-05-31 15:53:00
6:53 AM,79.0,69.1,72,29.98,10.0,ESE,3.5,-,N/A,,Overcast,120,2013-05-31 16:53:00
7:11 AM,78.8,69.8,74,29.98,10.0,Calm,Calm,-,N/A,,Scattered Clouds,0,2013-05-31 17:11:00
7:53 AM,80.1,69.1,69,29.98,10.0,South,3.5,-,N/A,,Clear,190,2013-05-31 17:53:00
8:53 AM,81.0,69.1,67,29.99,10.0,SSW,8.1,-,N/A,,Clear,210,2013-05-31 18:53:00
9:53 AM,82.0,68.0,62,29.99,10.0,SSW,8.1,-,N/A,,Clear,200,2013-05-31 19:53:00
10:53 AM,82.9,70.0,65,29.98,10.0,SW,10.4,-,N/A,,Overcast,230,2013-05-31 20:53:00
11:53 AM,82.0,70.0,67,29.98,10.0,SW,9.2,-,N/A,,Overcast,230,2013-05-31 21:53:00
12:53 PM,82.9,69.1,63,29.96,10.0,WSW,9.2,-,N/A,,Mostly Cloudy,250,2013-05-31 22:53:00
1:53 PM,84.0,69.1,61,29.95,10.0,WSW,9.2,-,N/A,,Overcast,250,2013-05-31 23:53:00
2:53 PM,82.9,70.0,65,29.94,10.0,WSW,10.4,-,N/A,,Overcast,250,2013-06-01 00:53:00
3:53 PM,82.0,70.0,67,29.95,10.0,WSW,10.4,-,N/A,,Overcast,250,2013-06-01 01:53:00
4:53 PM,81.0,70.0,69,29.96,10.0,WSW,6.9,-,N/A,,Overcast,250,2013-06-01 02:53:00
5:45 PM,80.6,69.8,70,29.97,10.0,SW,4.6,-,N/A,,Overcast,230,2013-06-01 03:45:00
5:53 PM,81.0,70.0,69,29.98,10.0,WSW,4.6,-,N/A,,Overcast,240,2013-06-01 03:53:00
6:04 PM,80.6,69.8,70,29.98,10.0,WSW,4.6,-,N/A,,Overcast,250,2013-06-01 04:04:00
6:53 PM,80.1,70.0,71,29.99,10.0,Calm,Calm,-,N/A,,Overcast,0,2013-06-01 04:53:00
7:53 PM,80.1,70.0,71,30.00,10.0,Calm,Calm,-,N/A,,Overcast,0,2013-06-01 05:53:00
8:53 PM,80.1,70.0,71,30.01,10.0,WNW,3.5,-,N/A,,Overcast,290,2013-06-01 06:53:00
9:53 PM,80.1,71.1,74,30.02,10.0,WSW,3.5,-,N/A,,Overcast,240,2013-06-01 07:53:00
10:30 PM,80.6,69.8,70,30.03,10.0,SW,3.5,-,N/A,,Overcast,230,2013-06-01 08:30:00
10:53 PM,80.1,70.0,71,30.03,10.0,SW,4.6,-,N/A,,Overcast,230,2013-06-01 08:53:00
11:10 PM,80.6,69.8,70,30.02,10.0,WSW,4.6,-,N/A,,Overcast,240,2013-06-01 09:10:00
11:53 PM,80.1,70.0,71,30.02,10.0,WSW,4.6,-,N/A,,Overcast,240,2013-06-01 09:53:00